VK2HN Weather Reports


time (UTC)temp
C
wind
direction
speed
KPH
gust
KPH
rain 1hr
cm
rain 24hr
cm
rain mn
cm
humidity
%
barometer
mb
20260831035958 25 140 1.6 11.3 0.00 0.00 0.00 47 1028.3
20260831035458 25 153 0.0 4.8 0.00 0.00 0.00 46 1028.4
20260831034958 25 165 0.0 0.0 0.00 0.00 0.00 47 1028.4
20260831034458 25 165 0.0 8.0 0.00 0.00 0.00 49 1028.5
20260831033958 25 120 0.0 6.4 0.00 0.00 0.00 51 1028.6
20260831033458 25 124 0.0 3.2 0.00 0.00 0.00 52 1028.6
20260831032958 25 124 0.0 0.0 0.00 0.00 0.00 49 1028.7
20260831032458 24 124 1.6 6.4 0.00 0.00 0.00 49 1029.5
20260831031958 25 121 1.6 11.3 0.00 0.00 0.00 51 1028.9
20260831031458 25 163 0.0 1.6 0.00 0.00 0.00 52 1028.9
20260831030958 25 98 0.0 6.4 0.00 0.00 0.00 49 1029.0
20260831030458 25 215 0.0 0.0 0.00 0.00 0.00 47 1029.0
20260831025958 24 215 0.0 1.6 0.00 0.00 0.00 53 1029.1
20260831025458 24 236 0.0 0.0 0.00 0.00 0.00 56 1029.4
20260831024958 24 236 0.0 0.0 0.00 0.00 0.00 53 1029.6
20260831024458 23 236 0.0 1.6 0.00 0.00 0.00 53 1029.6
20260831023958 24 236 1.6 3.2 0.00 0.00 0.00 54 1029.7
20260831023458 24 248 1.6 6.4 0.00 0.00 0.00 55 1029.8
20260831022958 23 204 1.6 6.4 0.00 0.00 0.00 57 1029.9
20260831022458 23 238 1.6 6.4 0.00 0.00 0.00 54 1030.1
20260831021958 23 223 0.0 4.8 0.00 0.00 0.00 57 1030.1
20260831021458 22 259 1.6 4.8 0.00 0.00 0.00 57 1030.2
20260831020958 22 264 0.0 6.4 0.00 0.00 0.00 56 1030.3
20260831020458 22 228 0.0 3.2 0.00 0.00 0.00 57 1030.5
20260831015958 22 227 0.0 0.0 0.00 0.00 0.00 57 1030.6
20260831015458 22 227 1.6 4.8 0.00 0.00 0.00 58 1030.5
20260831014958 22 167 1.6 6.4 0.00 0.00 0.00 60 1030.8
20260831014458 22 155 1.6 8.0 0.00 0.00 0.00 61 1030.8
20260831013958 22 209 1.6 6.4 0.00 0.00 0.00 61 1030.9
20260831013458 22 132 1.6 8.0 0.00 0.00 0.00 64 1031.0
20260831012958 22 252 0.0 0.0 0.00 0.00 0.00 60 1031.0
20260831012458 21 252 0.0 6.4 0.00 0.00 0.00 61 1031.1
20260831011958 21 169 0.0 0.0 0.00 0.00 0.00 61 1031.2
20260831011458 21 128 0.0 0.0 0.00 0.00 0.00 61 1031.3
20260831010958 21 130 0.0 0.0 0.00 0.00 0.00 63 1031.4
20260831010458 20 133 0.0 1.6 0.00 0.00 0.00 65 1031.4
20260831005958 20 133 0.0 4.8 0.00 0.00 0.00 67 1031.5
20260831005458 20 168 0.0 0.0 0.00 0.00 0.00 67 1031.5
20260831004958 19 169 0.0 0.0 0.00 0.00 0.00 68 1031.6
20260831004458 18 167 1.6 0.0 0.00 0.00 0.00 68 1031.6
20260831003958 18 119 1.6 4.8 0.00 0.00 0.00 69 1031.7
20260831003458 18 123 0.0 4.8 0.00 0.00 0.00 70 1031.8
20260831002958 17 124 0.0 0.0 0.00 0.00 0.00 72 1031.6
20260831002458 17 125 0.0 0.0 0.00 0.00 0.00 72 1031.7
20260831001958 17 125 0.0 0.0 0.00 0.00 0.00 73 1031.7
20260831001458 17 134 0.0 0.0 0.00 0.00 0.00 74 1031.7
20260831000958 17 132 0.0 0.0 0.00 0.00 0.00 72 1031.6
20260831000458 17 132 0.0 0.0 0.00 0.00 0.00 74 1031.6
20260830235958 17 134 0.0 4.8 0.00 0.00 0.00 75 1031.7
20260830235458 16 150 0.0 0.0 0.00 0.00 0.00 76 1031.6
20260830234958 16 157 0.0 0.0 0.00 0.00 0.00 77 1031.7
20260830234458 15 159 0.0 0.0 0.00 0.00 0.00 80 1031.6
20260830233958 15 104 0.0 0.0 0.00 0.00 0.00 82 1031.7
20260830233458 15 101 0.0 0.0 0.00 0.00 0.00 83 1031.7
20260830232958 14 102 0.0 0.0 0.00 0.00 0.00 82 1031.7
20260830232458 14 69 0.0 0.0 0.00 0.00 0.00 82 1031.8
20260830231958 13 69 0.0 0.0 0.00 0.00 0.00 83 1031.9
20260830231458 13 48 0.0 0.0 0.00 0.00 0.00 84 1032.0
20260830230958 13 47 0.0 0.0 0.00 0.00 0.00 84 1032.1
20260830230458 13 47 0.0 0.0 0.00 0.00 0.00 87 1032.2
20260830225958 12 52 0.0 0.0 0.00 0.00 0.00 88 1032.3
20260830225458 12 51 0.0 0.0 0.00 0.00 0.00 89 1032.1
20260830224958 12 86 0.0 0.0 0.00 0.00 0.00 91 1032.0
20260830224458 12 86 0.0 0.0 0.00 0.00 0.00 92 1032.0
20260830223958 12 86 0.0 0.0 0.00 0.00 0.00 93 1032.1
20260830223458 12 86 0.0 0.0 0.00 0.00 0.00 95 1032.2
20260830222958 11 88 0.0 0.0 0.00 0.00 0.00 98 1032.3
20260830222458 11 88 0.0 0.0 0.00 0.00 0.00 99 1032.4
20260830221958 10 88 0.0 0.0 0.00 0.00 0.00 100 1032.4
20260830221458 10 89 0.0 0.0 0.00 0.00 0.00 100 1032.3
20260830220958 9 94 0.0 0.0 0.00 0.00 0.00 100 1032.2
20260830220459 8 91 0.0 0.0 0.00 0.00 0.00 100 1032.1
20260830215958 8 91 0.0 0.0 0.00 0.00 0.00 100 1032.1
20260830215458 8 91 0.0 0.0 0.00 0.00 0.00 100 1032.0
20260830214959 7 91 0.0 0.0 0.00 0.00 0.00 99 1031.9
20260830214459 7 91 0.0 0.0 0.00 0.00 0.00 99 1031.7
20260830213959 6 91 0.0 0.0 0.00 0.00 0.00 99 1031.8
20260830213459 6 91 0.0 0.0 0.00 0.00 0.00 99 1032.0
20260830212959 6 91 0.0 0.0 0.00 0.00 0.00 99 1031.8
20260830212459 5 91 0.0 0.0 0.00 0.00 0.00 98 1031.9
20260830211958 5 91 0.0 0.0 0.00 0.00 0.00 98 1031.7
20260830211459 5 91 0.0 0.0 0.00 0.00 0.00 98 1031.8
20260830210959 5 91 0.0 0.0 0.00 0.00 0.00 98 1031.7
20260830210459 5 91 0.0 0.0 0.00 0.00 0.00 98 1031.7
20260830205959 5 91 0.0 0.0 0.00 0.00 0.00 98 1031.6
20260830205459 5 91 0.0 0.0 0.00 0.00 0.00 98 1031.4
20260830204959 5 91 0.0 0.0 0.00 0.00 0.00 98 1031.5
20260830204459 5 91 0.0 0.0 0.00 0.00 0.00 98 1031.4
20260830203959 5 91 0.0 0.0 0.00 0.00 0.00 98 1031.2
20260830203459 5 91 0.0 0.0 0.00 0.00 0.00 98 1031.3
20260830202959 5 91 0.0 0.0 0.00 0.00 0.00 98 1031.3
20260830202459 5 91 0.0 0.0 0.00 0.00 0.00 98 1031.3
20260830201959 5 91 0.0 0.0 0.00 0.00 0.00 98 1031.2
20260830201459 5 91 0.0 0.0 0.00 0.00 0.00 98 1031.2
20260830200959 5 91 0.0 0.0 0.00 0.00 0.00 98 1031.1
20260830200459 5 91 0.0 0.0 0.00 0.00 0.00 98 1031.0
20260830195959 5 91 0.0 0.0 0.00 0.00 0.00 97 1031.0
20260830195459 5 91 0.0 0.0 0.00 0.00 0.00 97 1030.9
20260830194959 5 91 0.0 0.0 0.00 0.00 0.00 98 1030.9
20260830194459 5 91 0.0 0.0 0.00 0.00 0.00 98 1030.8
20260830193959 5 91 0.0 0.0 0.00 0.00 0.00 98 1030.7
20260830193459 5 91 0.0 0.0 0.00 0.00 0.00 97 1030.6
20260830192959 5 91 0.0 0.0 0.00 0.00 0.00 97 1030.5
20260830192459 5 91 0.0 0.0 0.00 0.00 0.00 97 1030.6
20260830191959 5 91 0.0 0.0 0.00 0.00 0.00 97 1030.7
20260830191459 5 91 0.0 0.0 0.00 0.00 0.00 98 1030.5
20260830190959 5 91 0.0 0.0 0.00 0.00 0.00 98 1030.6
20260830190459 5 91 0.0 0.0 0.00 0.00 0.00 97 1030.6
20260830185959 5 91 0.0 0.0 0.00 0.00 0.00 97 1030.7
20260830185459 5 91 0.0 0.0 0.00 0.00 0.00 97 1030.7
20260830184959 5 91 0.0 0.0 0.00 0.00 0.00 98 1030.7
20260830184459 5 91 0.0 0.0 0.00 0.00 0.00 98 1030.7
20260830183959 5 91 0.0 0.0 0.00 0.00 0.00 98 1030.8
20260830183459 5 91 0.0 0.0 0.00 0.00 0.00 97 1030.8
20260830182959 5 91 0.0 0.0 0.00 0.00 0.00 97 1030.9
20260830182459 6 91 0.0 0.0 0.00 0.00 0.00 97 1031.0
20260830181959 5 91 0.0 0.0 0.00 0.00 0.00 97 1031.0
20260830181459 6 91 0.0 0.0 0.00 0.00 0.00 97 1030.9
20260830180959 6 91 0.0 0.0 0.00 0.00 0.00 97 1031.1
20260830180459 6 91 0.0 0.0 0.00 0.00 0.00 97 1030.9
20260830175959 6 91 0.0 0.0 0.00 0.00 0.00 97 1030.7
20260830175459 6 91 0.0 0.0 0.00 0.00 0.00 97 1030.8
20260830174959 6 91 0.0 0.0 0.00 0.00 0.00 97 1030.9
20260830174459 6 91 0.0 0.0 0.00 0.00 0.00 97 1031.0
20260830173959 6 91 0.0 0.0 0.00 0.00 0.00 97 1030.8
20260830173459 6 91 0.0 0.0 0.00 0.00 0.00 97 1031.0
20260830172959 6 91 0.0 0.0 0.00 0.00 0.00 97 1031.0
20260830172459 6 91 0.0 0.0 0.00 0.00 0.00 97 1031.2
20260830171959 6 91 0.0 0.0 0.00 0.00 0.00 97 1031.2
20260830171459 6 91 0.0 0.0 0.00 0.00 0.00 97 1031.3
20260830170959 6 91 0.0 0.0 0.00 0.00 0.00 97 1031.2
20260830170459 6 91 0.0 0.0 0.00 0.00 0.00 97 1031.1
20260830165959 6 91 0.0 0.0 0.00 0.00 0.00 97 1031.1
20260830165459 6 91 0.0 0.0 0.00 0.00 0.00 97 1031.1
20260830164959 6 91 0.0 0.0 0.00 0.00 0.00 97 1031.2
20260830164459 6 91 0.0 0.0 0.00 0.00 0.00 97 1031.2
20260830163959 6 91 0.0 0.0 0.00 0.00 0.00 97 1031.2
20260830163459 6 91 0.0 0.0 0.00 0.00 0.00 97 1031.1
20260830162959 6 91 0.0 0.0 0.00 0.00 0.00 97 1031.2
20260830162459 6 91 0.0 0.0 0.00 0.00 0.00 97 1031.2
20260830161959 6 91 0.0 0.0 0.00 0.00 0.00 97 1031.2
20260830161459 7 91 0.0 0.0 0.00 0.00 0.00 97 1031.2
20260830160959 7 91 0.0 0.0 0.00 0.00 0.00 97 1031.3
20260830160459 7 91 0.0 0.0 0.00 0.00 0.00 97 1031.3
20260830155959 7 91 0.0 0.0 0.00 0.00 0.00 97 1031.2
20260830155459 7 91 0.0 0.0 0.00 0.00 0.00 97 1031.2
20260830154959 7 91 0.0 0.0 0.00 0.00 0.00 97 1031.3
20260830154459 7 91 0.0 0.0 0.00 0.00 0.00 96 1031.3
20260830153959 7 91 0.0 0.0 0.00 0.00 0.00 96 1031.4
20260830153459 7 91 0.0 0.0 0.00 0.00 0.00 96 1031.4
20260830152959 7 91 0.0 0.0 0.00 0.00 0.00 96 1031.4
20260830152459 7 91 0.0 0.0 0.00 0.00 0.00 96 1031.3
20260830152002 7 91 0.0 0.0 0.00 0.00 0.00 96 1031.4
20260830151459 7 91 0.0 0.0 0.00 0.00 0.00 96 1031.4
20260830150959 7 91 0.0 0.0 0.00 0.00 0.00 97 1031.3
20260830150459 7 91 0.0 0.0 0.00 0.00 0.00 96 1031.4
20260830145959 7 91 0.0 0.0 0.00 0.00 0.00 96 1031.4
20260830145459 7 91 0.0 0.0 0.00 0.00 0.00 97 1031.5
20260830144959 8 91 0.0 0.0 0.00 0.00 0.00 97 1031.5
20260830144459 8 91 0.0 0.0 0.00 0.00 0.00 96 1031.4
20260830143959 8 91 0.0 0.0 0.00 0.00 0.00 97 1031.5
20260830143459 8 91 0.0 0.0 0.00 0.00 0.00 97 1031.5
20260830142959 8 91 0.0 0.0 0.00 0.00 0.00 97 1031.6
20260830142459 8 91 0.0 0.0 0.00 0.00 0.00 97 1031.5
20260830141959 8 91 0.0 0.0 0.00 0.00 0.00 97 1031.6
20260830141459 8 91 0.0 0.0 0.00 0.00 0.00 97 1031.5
20260830140959 8 91 0.0 0.0 0.00 0.00 0.00 96 1031.5
20260830140459 8 91 0.0 0.0 0.00 0.00 0.00 96 1031.5
20260830135959 8 92 0.0 0.0 0.00 0.00 0.00 96 1031.4
20260830135459 8 90 0.0 0.0 0.00 0.00 0.00 96 1031.2
20260830134959 8 90 0.0 0.0 0.00 0.00 0.00 96 1031.2
20260830134459 8 90 0.0 0.0 0.00 0.00 0.00 96 1031.1
20260830133959 8 90 0.0 0.0 0.00 0.00 0.00 96 1031.1
20260830133500 8 90 0.0 0.0 0.00 0.00 0.00 96 1031.1
20260830133000 8 90 0.0 0.0 0.00 0.00 0.00 96 1031.1
20260830132500 8 90 0.0 0.0 0.00 0.00 0.00 96 1031.1
20260830132000 8 90 0.0 0.0 0.00 0.00 0.00 96 1031.0
20260830131500 8 90 0.0 0.0 0.00 0.00 0.00 95 1031.1
20260830131000 8 90 0.0 0.0 0.00 0.00 0.00 95 1031.1
20260830130500 8 90 0.0 0.0 0.00 0.00 0.00 95 1031.1
20260830130000 9 90 0.0 0.0 0.00 0.00 0.00 95 1031.1
20260830125500 9 90 0.0 0.0 0.00 0.00 0.00 95 1031.1
20260830125000 9 90 0.0 0.0 0.00 0.00 0.00 95 1031.1
20260830124500 9 90 0.0 0.0 0.00 0.00 0.00 95 1031.0
20260830124000 9 90 0.0 0.0 0.00 0.00 0.00 95 1031.1
20260830123500 9 90 0.0 0.0 0.00 0.00 0.00 95 1031.0
20260830123000 9 90 0.0 0.0 0.00 0.00 0.00 95 1031.0
20260830122500 10 90 0.0 0.0 0.00 0.00 0.00 95 1030.9
20260830122000 10 90 0.0 0.0 0.00 0.00 0.00 95 1030.9
20260830121500 10 90 0.0 0.0 0.00 0.00 0.00 95 1031.0
20260830121000 10 90 0.0 0.0 0.00 0.00 0.00 94 1030.9
20260830120500 10 90 0.0 0.0 0.00 0.00 0.00 94 1030.9
20260830120000 10 90 0.0 0.0 0.00 0.00 0.00 94 1031.0
20260830115500 10 90 0.0 0.0 0.00 0.00 0.00 94 1031.0
20260830115000 10 90 0.0 0.0 0.00 0.00 0.00 93 1031.0
20260830114500 10 90 0.0 0.0 0.00 0.00 0.00 94 1030.9
20260830114000 10 90 0.0 0.0 0.00 0.00 0.00 94 1030.8
20260830113500 10 90 0.0 0.0 0.00 0.00 0.00 93 1030.9
20260830113000 10 90 0.0 0.0 0.00 0.00 0.00 93 1030.7
20260830112500 10 90 0.0 0.0 0.00 0.00 0.00 93 1030.6
20260830112000 10 90 0.0 0.0 0.00 0.00 0.00 93 1030.5
20260830111500 11 90 0.0 0.0 0.00 0.00 0.00 93 1030.7
20260830111000 11 90 0.0 0.0 0.00 0.00 0.00 92 1030.7
20260830110500 11 90 0.0 0.0 0.00 0.00 0.00 92 1030.7
20260830110000 11 90 0.0 0.0 0.00 0.00 0.00 92 1030.7
20260830105500 11 90 0.0 0.0 0.00 0.00 0.00 92 1030.7
20260830105000 11 90 0.0 0.0 0.00 0.00 0.00 91 1030.6
20260830104500 11 90 0.0 0.0 0.00 0.00 0.00 91 1030.6
20260830104000 11 90 0.0 0.0 0.00 0.00 0.00 91 1030.6
20260830103500 11 90 0.0 0.0 0.00 0.00 0.00 90 1030.5
20260830103000 11 90 0.0 0.0 0.00 0.00 0.00 90 1030.3
20260830102500 11 90 0.0 0.0 0.00 0.00 0.00 90 1030.3
20260830102000 12 90 0.0 0.0 0.00 0.00 0.00 90 1030.4
20260830101500 12 90 0.0 0.0 0.00 0.00 0.00 89 1030.3
20260830101000 12 90 0.0 0.0 0.00 0.00 0.00 89 1030.1
20260830100500 12 90 0.0 0.0 0.00 0.00 0.00 89 1030.1
20260830100000 12 90 0.0 0.0 0.00 0.00 0.00 89 1030.3
20260830095500 12 90 0.0 0.0 0.00 0.00 0.00 88 1030.2
20260830095000 12 90 0.0 0.0 0.00 0.00 0.00 87 1030.2
20260830094500 12 90 0.0 0.0 0.00 0.00 0.00 88 1030.1
20260830094000 12 90 0.0 0.0 0.00 0.00 0.00 88 1029.9
20260830093500 13 90 0.0 0.0 0.00 0.00 0.00 87 1030.0
20260830093000 13 90 0.0 0.0 0.00 0.00 0.00 87 1029.9
20260830092500 13 90 0.0 0.0 0.00 0.00 0.00 86 1029.9
20260830092000 13 90 0.0 0.0 0.00 0.00 0.00 86 1029.9
20260830091500 13 90 0.0 0.0 0.00 0.00 0.00 86 1029.9
20260830091000 13 90 0.0 0.0 0.00 0.00 0.00 86 1029.9
20260830090500 13 90 0.0 0.0 0.00 0.00 0.00 85 1029.8
20260830090000 14 90 0.0 0.0 0.00 0.00 0.00 85 1029.8
20260830085500 14 90 0.0 0.0 0.00 0.00 0.00 83 1029.8
20260830085000 14 90 0.0 0.0 0.00 0.00 0.00 80 1029.6
20260830084500 15 90 0.0 0.0 0.00 0.00 0.00 80 1029.6
20260830084000 15 90 0.0 0.0 0.00 0.00 0.00 81 1029.6
20260830083500 15 90 0.0 0.0 0.00 0.00 0.00 81 1029.5
20260830083000 15 90 0.0 0.0 0.00 0.00 0.00 81 1029.3
20260830082500 15 90 0.0 0.0 0.00 0.00 0.00 79 1029.3
20260830082000 15 90 0.0 0.0 0.00 0.00 0.00 76 1029.2
20260830081500 16 90 0.0 0.0 0.00 0.00 0.00 77 1029.2
20260830081000 16 90 0.0 0.0 0.00 0.00 0.00 77 1029.1
20260830080500 16 90 0.0 0.0 0.00 0.00 0.00 76 1029.0
20260830080000 16 90 0.0 0.0 0.00 0.00 0.00 73 1029.1
20260830075500 16 90 0.0 0.0 0.00 0.00 0.00 72 1029.0
20260830075000 17 90 0.0 0.0 0.00 0.00 0.00 70 1028.9
20260830074500 17 90 0.0 0.0 0.00 0.00 0.00 67 1028.8
20260830074000 17 94 0.0 0.0 0.00 0.00 0.00 67 1028.9
20260830073500 18 94 0.0 0.0 0.00 0.00 0.00 61 1028.9
20260830073000 18 94 0.0 0.0 0.00 0.00 0.00 59 1028.8
20260830072500 18 94 0.0 0.0 0.00 0.00 0.00 60 1028.7
20260830072000 19 94 0.0 0.0 0.00 0.00 0.00 56 1028.9
20260830071500 19 94 0.0 0.0 0.00 0.00 0.00 56 1028.9
20260830071000 20 94 0.0 0.0 0.00 0.00 0.00 58 1028.7
20260830070500 20 94 0.0 0.0 0.00 0.00 0.00 50 1028.7
20260830070000 21 95 0.0 0.0 0.00 0.00 0.00 46 1028.7
20260830065500 21 95 0.0 0.0 0.00 0.00 0.00 46 1028.6
20260830065000 21 92 0.0 1.6 0.00 0.00 0.00 46 1028.6
20260830064500 21 92 0.0 6.4 0.00 0.00 0.00 44 1028.6
20260830064000 21 124 0.0 6.4 0.00 0.00 0.00 43 1028.6
20260830063500 22 127 0.0 4.8 0.00 0.00 0.00 43 1028.6
20260830063000 22 121 1.6 6.4 0.00 0.00 0.00 42 1028.5
20260830062500 22 132 0.0 6.4 0.00 0.00 0.00 43 1028.4
20260830062000 22 126 1.6 0.0 0.00 0.00 0.00 44 1028.5
20260830061500 22 126 1.6 8.0 0.00 0.00 0.00 45 1028.6
20260830061000 22 131 1.6 6.4 0.00 0.00 0.00 46 1028.6
20260830060500 22 127 0.0 0.0 0.00 0.00 0.00 46 1028.5
20260830060000 22 121 1.6 1.6 0.00 0.00 0.00 43 1028.6
20260830055500 22 122 1.6 6.4 0.00 0.00 0.00 43 1028.5
20260830055000 22 122 1.6 8.0 0.00 0.00 0.00 43 1028.5
20260830054500 22 107 0.0 0.0 0.00 0.00 0.00 44 1028.5
20260830054000 22 111 0.0 0.0 0.00 0.00 0.00 44 1028.5
20260830053500 22 135 0.0 0.0 0.00 0.00 0.00 44 1028.5
20260830053000 22 134 0.0 6.4 0.00 0.00 0.00 44 1028.5
20260830052500 22 148 0.0 4.8 0.00 0.00 0.00 43 1028.5
20260830052000 23 178 0.0 4.8 0.00 0.00 0.00 43 1028.5
20260830051500 23 173 1.6 1.6 0.00 0.00 0.00 44 1028.6
20260830051000 23 172 1.6 11.3 0.00 0.00 0.00 42 1028.6
20260830050500 23 120 1.6 9.7 0.00 0.00 0.00 43 1028.6
20260830050000 23 114 0.0 12.9 0.00 0.00 0.00 43 1028.7
20260830045500 23 140 1.6 0.0 0.00 0.00 0.00 42 1028.7
20260830045000 23 139 1.6 6.4 0.00 0.00 0.00 44 1028.6
20260830044500 23 66 1.6 8.0 0.00 0.00 0.00 41 1028.6
20260830044000 23 348 0.0 4.8 0.00 0.00 0.00 39 1028.6
20260830043500 23 101 0.0 0.0 0.00 0.00 0.00 46 1028.6
20260830043000 23 101 1.6 4.8 0.00 0.00 0.00 44 1028.8
20260830042500 23 101 1.6 4.8 0.00 0.00 0.00 47 1028.7
20260830042000 23 74 1.6 11.3 0.00 0.00 0.00 42 1028.8
20260830041501 23 76 0.0 6.4 0.00 0.00 0.00 47 1028.8
20260830041000 23 161 0.0 9.7 0.00 0.00 0.00 49 1028.8
20260830040500 23 139 1.6 4.8 0.00 0.00 0.00 46 1028.8